User: anonymous   Login
Location: Unspecified
(0.0000°N, 0.0000°E)
Time: 01:01:28
(UTC+00:00)
Language:

STARLINK-31439 - Orbit

View from above orbital plane
View from above orbital plane
View from above satellite
View from above satellite

Ground track
Ground track

The orbit is defined by the following mean orbital elements,

1 59178U          26145.34944080 +.00000000 +00000-0 +11436-4 0 00002
2 59178  43.0037  16.3130 0000533 274.8724  85.2067 15.27566967    00
Epoch (UTC): 25 May 2026 08:23:11
Eccentricity: 0.0000533
inclination: 43.0037°
perigee height: 483 km
apogee height: 483 km
right ascension of ascending node: 16.3130°
argument of perigee: 274.8724°
revolutions per day: 15.27566967
mean anomaly at epoch: 85.2067°

The dashed part of the orbit path shows where the satellite is in the earth's shadow,  

DLR